Location: Pian di Sc�
(43.6333°N, 11.5500°E)
Time: 14:24:04
(UTC+00:00)

IRS-1C - Pass Details

Date: 07 August 2020
Orbit: 816 x 817 km, 98.8° (Epoch: 24 September)

Event Time Altitude Azimuth Distance (km) Brightness Sun altitude
Rises 02:27:59 0° 8° (N) 3,356 8.2 -16.2°
Reaches altitude 10° 02:30:24 10° 4° (N) 2,419 7.2 -15.9°
Maximum altitude 02:35:32 49° 290° (WNW) 1,046 4.5 -15.2°
Enters shadow 02:38:42 22° 226° (SW) 1,705 5.2 -14.8°
